Regional Weather Roundup
Issued by NWS

Home | Current Version | Previous Version | Text Only | Print | Product List | Glossary Off
Versions: 1 2 3 4 5 6 7 8 9 10 11 12 13 14 15 16 17 18 19 20 21 22 23 24 25 26 27 28 29 30 31 32 33 34 35 36 37 38 39 40 41 42 43 44 45 46 47 48 49 50

000
ASUS45 KCYS 040410
RWRWY

WYOMING REGIONAL WEATHER ROUNDUP
NATIONAL WEATHER SERVICE CHEYENNE WY
900 PM MST TUE MAR 03 2015

NOTE:  "FAIR" INDICATES FEW OR NO CLOUDS BELOW 12,000 FEET
WITH NO SIGNIFICANT WEATHER AND/OR OBSTRUCTIONS TO VISIBILITY.

WYZ001-040500-
YELLOWSTONE NATIONAL PARK

CITY           SKY/WX    TMP DP  RH WIND       PRES   REMARKS
LK YELLOWSTONE   N/A     -5 -11  75 CALM      29.85R
W YELLOWSTONE  NOT AVBL

$$
WYZ002>013-054>058-071-098>099-040500-
NORTHERN WYOMING

CITY           SKY/WX    TMP DP  RH WIND       PRES   REMARKS
JACKSON        MOCLDY    10   0  61 NW3       29.88R
CODY           FAIR       5   0  78 W3        29.99R
GREYBULL       FAIR      12   0  58 W12       30.05R WCI  -2
WORLAND        FAIR       4  -1  80 S3        30.04R
SHERIDAN       FAIR      -2 -11  65 CALM      30.04R
BUFFALO        FAIR       1  -7  68 W7        29.96R WCI -12
GILLETTE       FAIR       2  -5  72 W12       29.99R WCI -15
HULETT         FAIR       1  -6  71 SW9       29.98R WCI -14
NEWCASTLE      FAIR       3  -2  78 NW5       30.00S WCI  -6

$$
WYZ014>020-022>026-101>103-040500-
CENTRAL WYOMING

CITY           SKY/WX    TMP DP  RH WIND       PRES   REMARKS
BIG PINEY      FAIR      12   1  61 N12       29.83R WCI  -2
PINEDALE       FAIR       3  -6  66 W9        29.84R WCI -11
DUBOIS         FAIR      -6  -9  84 S5        29.82R WCI -17
LANDER         CLOUDY     7   1  76 NW7       29.94R WCI  -5
RIVERTON       CLOUDY     7   0  73 MISG      29.95R
CASPER         FAIR     -10 -14  82 W3        29.95R
DOUGLAS        FAIR      -3  -7  82 CALM      29.99R

$$
WYZ021-027>030-104>119-040500-
SOUTHERN WYOMING

CITY           SKY/WX    TMP DP  RH WIND       PRES   REMARKS
EVANSTON       FAIR      11   7  84 W9        29.89R WCI  -2
FORT BRIDGER   FAIR      13   8  79 W10       29.90R WCI   0
ROCK SPRINGS   FAIR       7   2  80 CALM      29.83R
DIXON          FAIR      13  10  85 W3        29.86R
RAWLINS        CLOUDY     0  -3  87 CALM      29.82R
SARATOGA       LGT SNOW   9   7  92 SW3       29.81R
LARAMIE        CLOUDY     4   0  83 N7        29.77R WCI  -8
CHEYENNE       CLOUDY     8   3  80 N8        29.87R WCI  -4
TORRINGTON     FAIR      12   8  84 N6        30.01R WCI   3
PINE BLUFFS    CLOUDY    12   9  85 N8        29.95R WCI   1

$$



USA.gov is the U.S. government's official web portal to all federal, state and local government web resources and services.